Regional Weather Roundup
Issued by NWS

Home | Current Version | Previous Version | Graphics & Text | Print | Product List | Glossary On
Versions: 1 2 3 4 5 6 7 8 9 10 11 12 13 14 15 16 17 18 19 20 21 22 23 24 25 26 27 28 29 30 31 32 33 34 35 36 37 38 39 40 41 42 43 44 45 46 47 48 49 50
107
ASUS43 KFSD 252110
RWRSD

WEATHER ROUNDUP FOR SOUTH DAKOTA
NATIONAL WEATHER SERVICE SIOUX FALLS SD
400 PM CDT WED APR 25 2018

NOTE: "FAIR" INDICATES FEW OR NO CLOUDS BELOW 12,000 FEET WITH NO
SIGNIFICANT WEATHER AND/OR OBSTRUCTIONS TO VISIBILITY.


SDZ001>005-009-010-012>017-252200-
NORTHWEST AND NORTH CENTRAL SOUTH DAKOTA

CITY           SKY/WX    TMP DP  RH WIND       PRES   REMARKS
BUFFALO          N/A     73  20  13 SW18G29   29.85F
FAITH            N/A     67  27  22 S13G22    29.95F
MOBRIDGE       CLOUDY    66  31  27 S18G28    29.94F
$$

SDZ012>016-024>037-041>051-057-063-072>074-252200-
SOUTHWEST AND SOUTH CENTRAL SOUTH DAKOTA

CITY           SKY/WX    TMP DP  RH WIND       PRES   REMARKS
RAPID CTY ARPT MOSUNNY   74  18  12 S18G26    29.93F
PIERRE         MOSUNNY   66  25  21 S18G24    30.00F
CUSTER         SUNNY     60  17  18 W17G23    30.06F
ELLSWORTH AFB  MOSUNNY   73  20  13 S14       29.92F
PHILIP         PTSUNNY   69  26  20 SW14G22   29.98F
PINE RIDGE     SUNNY     67  24  19 SW13      30.03F
SPEARFISH      FAIR      68  16  13 SW15      29.97F
WINNER         FAIR      64  28  25 S12       30.07F
$$

SDZ004>011-016>023-039-040-252200-
NORTHEAST SOUTH DAKOTA

CITY           SKY/WX    TMP DP  RH WIND       PRES   REMARKS
ABERDEEN       MOSUNNY   66  30  26 SW17G28   30.01F
WATERTOWN      SUNNY     57  31  37 SW14      30.07F
BROOKINGS      SUNNY     56  30  37 VRB5        N/A
SISSETON         N/A     63  28  26 W14       30.03F
$$

SDZ017-020-022-023-036>040-048>070-252200-
SOUTHEAST SOUTH DAKOTA

CITY           SKY/WX    TMP DP  RH WIND       PRES   REMARKS
SIOUX FALLS    MOSUNNY   60  27  28 VRB6      30.10F
HURON          SUNNY     62  32  32 S12G17    30.06F
CHAMBERLAIN    MOSUNNY   63  32  31 S14       30.06F
MITCHELL       SUNNY     61  34  36 SW10      30.10F
YANKTON        SUNNY     58  28  32 CALM      30.12F
$$

ABBREVIATIONS USED IN REMARKS
   TC - TEMPERATURE IN CELSIUS
  WCI - WIND CHILL INDEX
   HX - HEAT INDEX
  VSB - VISIBILITY





USA.gov is the U.S. government's official web portal to all federal, state and local government web resources and services.